Regional Weather Roundup
Issued by NWS Goodland, KS

Home | Current Version | Previous Version | Text Only | Print | Product List | Glossary Off
Versions: 1 2 3 4 5 6 7 8 9 10 11 12 13 14 15 16 17 18 19 20 21 22 23 24 25 26 27 28 29 30 31 32 33 34 35 36 37 38 39 40 41 42 43 44 45 46 47 48 49 50

000
ASUS43 KGLD 020759
RWRGLD

GOODLAND FORECAST AREA HOURLY WEATHER ROUNDUP
NATIONAL WEATHER SERVICE GOODLAND KS
200 AM MDT TUE JUN 02 2015

...OFFICIAL OBSERVATIONS...

CITY           SKY/WX    TMP DP  RH WIND       PRES   REMARKS
GOODLAND KS    CLOUDY    65  62  90 E17       30.01R
HILL CITY KS   CLOUDY    64  60  87 SE9       29.99S
IMPERIAL NEB   CLOUDY    60  57  89 E13       29.96F
MCCOOK NEB     TSTM      60  59  96 CALM      30.06F FOG
AKRON CO       MOCLDY    59  59 100 NE8       30.01R FOG
BURLINGTON CO  CLOUDY    63  56  78 NE10      30.01R
LIMON CO       MOCLDY    62  47  57 MISG      30.02F
$$

...UNOFFICIAL OBSERVATIONS...

CITY           SKY/WX    TMP DP  RH WIND       PRES   REMARKS
GOVE KS          N/A     64  32  30 MISG        N/A
NORTON KS      PTCLDY    63  55  77 SE8       29.98S
SHARON SPRINGS   N/A     67  63  87 MISG        N/A
KIT CARSON CO    N/A     62  52  70 MISG        N/A
$$


USA.gov is the U.S. government's official web portal to all federal, state and local government web resources and services.